Location: Unspecified
(0.0000°N, 0.0000°E)
Time: 08:25:26
(UTC+00:00)

Tiangong 2 - Pass Details

Date: 09 February 2018
Orbit: 384 x 389 km, 42.8° (Epoch: 23 February)

Event Time Altitude Azimuth Distance (km) Brightness Sun altitude
Exits shadow 05:07:33 22° 225° (SW) 899 2.6 -16.1°
Drops below altitude 10° 05:10:04 10° 171° (S) 1,403 4.2 -15.5°
Sets 05:12:26 0° 155° (SSE) 2,260 5.6 -14.9°
